sat.trackr.live / text

‹ back to catalog

STARLINK-4004

NORAD 52656 · 2022-053A

PAYLOAD ACTIVE UNKNOWN

§ Identity

Operator
Country
US
Launch date
2022-05-18
Launch site
AFETR
Launch vehicle
Mass (kg)
RCS (m²)

Purposes: comms

External: N2YO · Heavens-Above · Gunter

§ Orbital elements

Epoch: 2026-05-24T09:42:35.948736Z

Period
95.44 min
Inclination
53.2153°
Eccentricity
0.0000871
Mean motion
15.08841428 rev/d
Perigee alt
539.1 km
Apogee alt
540.3 km
Semi-major
6,917.9 km
B*
5.5305e-5
RAAN
174.2308°
Arg perigee
69.2622°
Mean anomaly
290.8464°
Rev number
22,254

§ Raw data

STARLINK-40041 52656U 22053A   26144.40458274  .00000593  00000+0  55305-4 0  99952 52656  53.2153 174.2308 0000871  69.2622 290.8464 15.08841428222542

JSON: /api/v1/satellites/52656 · /tle

For live sub-satellite position, see the globe view (requires WebGL).

§ Visibility from observer

Set your observer location to see the next 7 days of passes ≥ 10°. The values pass through the URL so the page stays shareable.

No JS? Fill the form by hand. The geolocation button needs JavaScript.